Home   Weather   Bulgaria   Plovdiv   Past weeks
Flag for Bulgaria

Past Weather in Plovdiv, Bulgaria — Yesterday and Last 2 Weeks

Currently: 36 °F. Light rain. Overcast. (Weather station: Plovdiv Airport, Bulgaria). See more current weather

Past Weather in Plovdiv — Graph

°F

Plovdiv Temperature Yesterday

Maximum temperature yesterday: 43 °F (at 11:30 am)
Minimum temperature yesterday: 39 °F (at 3:00 am)
Average temperature yesterday: 40 °F

High & Low Weather Summary for the Past Weeks

 TemperatureHumidityPressure
High72 °F (Jan 19, 1:30 pm)100% (Jan 14, 6:00 am)30.48 "Hg (Jan 14, 6:00 am)
Low30 °F (Jan 21, 7:30 am)29% (Jan 19, 1:00 pm)29.56 "Hg (Jan 18, 1:00 am)
Average43 °F87%29.99 "Hg
* Reported Jan 14 6:00 am — Jan 29 6:30 am, Plovdiv. Weather by CustomWeather, © 2023

Note: Actual official high and low records may vary slightly from our data, if they occured in-between our weather recording intervals... More about our weather records

Plovdiv Weather History for the Previous 24 Hours

Scroll right to see more
 ConditionsComfort  
Time TempWeatherWind HumidityBarometerVisibility
6:30 am
Sun, Jan 29
36 °FLight rain. Overcast.14 mph93%30.09 "HgN/A
6:00 am37 °FLight rain. Overcast.12 mph81%30.07 "HgN/A
5:30 am37 °FMostly cloudy.8 mph75%30.07 "HgN/A
5:00 am37 °FOvercast.9 mph75%30.07 "HgN/A
4:30 am37 °FMostly cloudy.13 mph75%30.07 "HgN/A
4:00 am37 °FMostly cloudy.10 mph70%30.07 "HgN/A
3:30 am37 °FMostly cloudy.15 mph70%30.07 "HgN/A
3:00 am37 °FOvercast.12 mph70%30.04 "HgN/A
1:30 am39 °FOvercast.15 mph70%30.04 "HgN/A
1:00 am37 °FOvercast.13 mph75%30.04 "HgN/A
12:00 am39 °FOvercast.16 mph70%30.04 "HgN/A
11:30 pm
Sat, Jan 28
39 °FOvercast.15 mph70%30.04 "HgN/A
11:00 pm39 °FOvercast.12 mph70%30.04 "HgN/A
10:30 pm39 °FMostly cloudy.12 mph70%30.01 "HgN/A
10:00 pm39 °FMostly cloudy.9 mph70%30.01 "HgN/A
9:30 pm39 °FMostly cloudy.9 mph70%30.01 "HgN/A
9:00 pm41 °FMostly cloudy.10 mph66%30.01 "HgN/A
8:00 pm39 °FMostly cloudy.9 mph75%30.01 "HgN/A
7:30 pm39 °FOvercast.12 mph75%30.01 "HgN/A
7:00 pm39 °FOvercast.12 mph75%30.01 "HgN/A
6:00 pm41 °FOvercast.10 mph70%29.98 "HgN/A
5:30 pm39 °FMostly cloudy.12 mph75%29.95 "HgN/A
5:00 pm39 °FMostly cloudy.13 mph81%29.95 "HgN/A
4:00 pm41 °FMore clouds than sun.16 mph70%29.95 "HgN/A
3:30 pm41 °FOvercast.18 mph66%29.92 "HgN/A
3:00 pm41 °FOvercast.17 mph70%29.92 "HgN/A
2:00 pm43 °FBroken clouds.17 mph61%29.92 "HgN/A
1:30 pm43 °FOvercast.21 mph61%29.92 "HgN/A
1:00 pm43 °FMore clouds than sun.20 mph61%29.92 "HgN/A
12:30 pm43 °FOvercast.21 mph61%29.92 "HgN/A
12:00 pm43 °FOvercast.21 mph61%29.92 "HgN/A
11:30 am43 °FOvercast.22 mph61%29.92 "HgN/A
11:00 am41 °FOvercast.21 mph61%29.92 "HgN/A
10:30 am41 °FPartly sunny.21 mph66%29.89 "HgN/A
10:00 am41 °FOvercast.21 mph66%29.89 "HgN/A
9:30 am41 °FOvercast.17 mph66%29.89 "HgN/A
9:00 am39 °FOvercast.17 mph70%29.86 "HgN/A
8:00 am39 °FMore clouds than sun.18 mph70%29.83 "HgN/A
7:30 am39 °FOvercast.18 mph70%29.83 "HgN/A
7:00 am39 °FOvercast.17 mph65%29.83 "HgN/A
Weather by CustomWeather, © 2023

See weather overview